Find Starlink 11492

NORAD ID: 62224 Int'l Des: 2024-231 Owner: SPXS Country: US Constellation: starlink operational
LEOCIRCULAR

实时位置

正在加载3D地球...

关于 Starlink 11492

正在加载描述...

即将过境

Passes for default location (London). Set your location on the main map for personalized predictions.

高度历史

Loading altitude history...

两行轨道根数

1 62224U 24231G 26127.10873637 .00161389 00000-0 13071-2 0 9993
2 62224 53.1567 173.5292 0001023 98.5547 261.5586 15.69785968 82588
Epoch: May 7, 2026 • Age: 11 hours

当前状态

高度 358.9 km
速度 7.70 km/s
星下点 12.15°N, 93.53°W
发射日期 Dec 5, 2024
运行时间 1.4 years
类型 internet

技术详情

分类 Payload
质量 960.00 kg
干质量 910.00 kg
总质量 960.00 kg
长度 0.30 m
直径 4.10 m
跨度 29.00 m
形状 Box + pan
制造商 SPXS
平台类型 Starlink V2MD
阶段状态 In Orbit
所有者/国家 SPXS/US

Most Searched